Weather History for Edinburgh Airport, United Kingdom

Change the Weather History Date:

Thursday, December 20, 2012

  Actual Average Record
Temperature  
Mean Temperature 42 °F -  
Max Temperature 42 °F 43 °F 51 °F (2000)
Min Temperature 41 °F 33 °F 10 °F (2010)
Degree Days  
Heating Degree Days 24    
Moisture  
Dew Point 38 °F    
Average Humidity 84    
Maximum Humidity 87    
Minimum Humidity 81    
Precipitation  
Precipitation 0.00 in 0.08 in - ()
Sea Level Pressure  
Sea Level Pressure 29.67 in    
Wind  
Wind Speed 13 mph ()    
Max Wind Speed 22 mph    
Max Gust Speed 36 mph    
Visibility 6.2 miles    
Events Rain    
Averages and records for this station are not official NWS values.
T = Trace of Precipitation, MM = Missing Value Source: Averaged Metar Reports

Daily Weather History Graph

Daily Weather History Graph

Search for Another Location

Airport:

Trip Planner

Search our weather history database for the weather conditions in past years. The results will help you decide how hot, cold, wet, or windy it might be!

Date:

Astronomy

Dec. 20, 2012 Rise Set
Actual Time 8:42 AM GMT 3:40 PM GMT
Civil Twilight 7:54 AM GMT 4:27 PM GMT
Nautical Twilight 7:05 AM GMT 5:16 PM GMT
Astronomical Twilight 6:20 AM GMT 6:02 PM GMT
Moon 11:50 AM GMT (12/20) 12:10 AM GMT (12/20)
Length of Visible Light 8h 32m
Length of Day
6h 57m
First Quarter, 53% of the Moon is Illuminated
Dec 20
First Quarter
Dec 28
Full
Jan 5
Last Quarter
Jan 11
New
Jan 18
First Quarter

Hourly Weather History & Observations

Time (GMT) Temp. Windchill Dew Point Humidity Pressure Visibility Wind Dir Wind Speed Gust Speed Precip Events Conditions
12:20 AM 42.8 °F 36.6 °F 37.4 °F 81% 29.86 in 6.2 mi East 11.5 mph - N/A   Mostly Cloudy
12:50 AM 42.8 °F 37.5 °F 37.4 °F 81% 29.86 in 6.2 mi East 9.2 mph - N/A   Mostly Cloudy
1:20 AM 42.8 °F 37.0 °F 37.4 °F 81% 29.83 in 6.2 mi East 10.4 mph - N/A   Mostly Cloudy
1:50 AM 42.8 °F 37.5 °F 37.4 °F 81% 29.83 in 6.2 mi East 9.2 mph - N/A   Mostly Cloudy
2:20 AM 42.8 °F 37.5 °F 37.4 °F 81% 29.83 in 6.2 mi East 9.2 mph - N/A Rain Light Rain
2:50 AM 42.8 °F 37.5 °F 37.4 °F 81% 29.83 in 6.2 mi East 9.2 mph - N/A Rain Light Rain
3:20 AM 42.8 °F 37.5 °F 39.2 °F 87% 29.80 in 6.2 mi East 9.2 mph - N/A Rain Light Rain
3:50 AM 42.8 °F 36.6 °F 39.2 °F 87% 29.77 in 6.2 mi East 11.5 mph - N/A Rain Light Rain
4:20 AM 42.8 °F 36.2 °F 39.2 °F 87% 29.77 in 6.2 mi East 12.7 mph - N/A Rain Light Rain
4:50 AM 42.8 °F 35.8 °F 39.2 °F 87% 29.77 in 6.2 mi East 13.8 mph - N/A Rain Light Rain
5:20 AM 42.8 °F 36.2 °F 39.2 °F 87% 29.77 in 6.2 mi East 12.7 mph - N/A Rain Light Rain
5:50 AM 42.8 °F 37.0 °F 39.2 °F 87% 29.74 in 6.2 mi East 10.4 mph - N/A Rain Light Rain
6:20 AM 42.8 °F 35.8 °F 37.4 °F 81% 29.74 in 6.2 mi East 13.8 mph - N/A   Mostly Cloudy
6:50 AM 42.8 °F 35.4 °F 37.4 °F 81% 29.71 in 6.2 mi East 15.0 mph - N/A Rain Light Rain
7:20 AM 42.8 °F 34.8 °F 37.4 °F 81% 29.71 in 6.2 mi East 17.3 mph - N/A Rain Light Rain
7:50 AM 42.8 °F 35.1 °F 37.4 °F 81% 29.71 in 6.2 mi East 16.1 mph - N/A Rain Light Rain
8:20 AM 42.8 °F 34.8 °F 37.4 °F 81% 29.71 in 6.2 mi East 17.3 mph - N/A Rain Light Rain
8:50 AM 42.8 °F 35.1 °F 37.4 °F 81% 29.71 in 6.2 mi East 16.1 mph - N/A Rain Light Rain
9:20 AM 42.8 °F 34.3 °F 37.4 °F 81% 29.68 in 6.2 mi East 19.6 mph - N/A Rain Light Rain
9:50 AM 42.8 °F 34.8 °F 37.4 °F 81% 29.68 in 6.2 mi East 17.3 mph - N/A Rain Light Rain
10:20 AM 42.8 °F 34.3 °F 39.2 °F 87% 29.68 in 6.2 mi East 19.6 mph - N/A Rain Light Rain
10:50 AM 42.8 °F 34.3 °F 39.2 °F 87% 29.65 in 5.6 mi East 19.6 mph - N/A Rain Light Rain
11:20 AM 42.8 °F 34.8 °F 39.2 °F 87% 29.65 in 6.2 mi East 17.3 mph 28.8 mph N/A Rain Light Rain
11:50 AM 42.8 °F 34.5 °F 39.2 °F 87% 29.62 in 6.2 mi East 18.4 mph - N/A Rain Light Rain
12:20 PM 42.8 °F 34.8 °F 39.2 °F 87% 29.62 in 6.2 mi East 17.3 mph - N/A Rain Light Rain
12:50 PM 42.8 °F 33.8 °F 37.4 °F 81% 29.62 in 6.2 mi East 21.9 mph - N/A Rain Light Rain
1:20 PM 42.8 °F 34.3 °F 37.4 °F 81% 29.59 in 6.2 mi East 19.6 mph - N/A Rain Light Rain
1:50 PM 42.8 °F 34.3 °F 37.4 °F 81% 29.59 in 6.2 mi East 19.6 mph - N/A Rain Light Rain
2:20 PM 42.8 °F 34.3 °F 37.4 °F 81% 29.59 in 6.2 mi East 19.6 mph - N/A Rain Light Rain
2:50 PM 42.8 °F 33.8 °F 37.4 °F 81% 29.59 in 6.2 mi East 21.9 mph 35.7 mph N/A Rain Light Rain
3:20 PM 42.8 °F 34.3 °F 37.4 °F 81% 29.59 in 6.2 mi East 19.6 mph - N/A Rain Light Rain
3:50 PM 41.0 °F 32.5 °F 37.4 °F 87% 29.59 in 6.2 mi East 17.3 mph - N/A Rain Light Rain
4:20 PM 41.0 °F 31.4 °F 37.4 °F 87% 29.59 in 6.2 mi East 21.9 mph - N/A Rain Light Rain
4:50 PM 41.0 °F 32.2 °F 37.4 °F 87% 29.59 in 6.2 mi East 18.4 mph - N/A Rain Light Rain
5:20 PM 41.0 °F 32.8 °F 37.4 °F 87% 29.59 in 6.2 mi East 16.1 mph - N/A Rain Light Rain
5:50 PM 41.0 °F 32.8 °F 37.4 °F 87% 29.59 in 6.2 mi East 16.1 mph 28.8 mph N/A Rain Light Rain
6:20 PM 41.0 °F 32.8 °F 37.4 °F 87% 29.59 in 6.2 mi East 16.1 mph - N/A Rain Light Rain
6:50 PM 41.0 °F 32.5 °F 37.4 °F 87% 29.59 in 6.2 mi East 17.3 mph - N/A Rain Light Rain
7:20 PM 41.0 °F 32.5 °F 37.4 °F 87% 29.59 in 6.2 mi East 17.3 mph - N/A Rain Light Rain
7:50 PM 41.0 °F 32.8 °F 37.4 °F 87% 29.59 in 6.2 mi East 16.1 mph - N/A Rain Light Rain
8:20 PM 41.0 °F 32.8 °F 37.4 °F 87% 29.59 in 6.2 mi East 16.1 mph - N/A Rain Rain
8:50 PM 41.0 °F 32.8 °F 37.4 °F 87% 29.62 in 6.2 mi East 16.1 mph - N/A Rain Rain
9:20 PM 41.0 °F 33.9 °F 37.4 °F 87% 29.62 in 5.0 mi East 12.7 mph - N/A Rain Rain
9:50 PM 41.0 °F 32.8 °F 37.4 °F 87% 29.62 in 6.2 mi East 16.1 mph - N/A Rain Light Rain
10:20 PM 41.0 °F 33.9 °F 37.4 °F 87% 29.62 in 6.2 mi East 12.7 mph - N/A Rain Light Rain
10:50 PM 41.0 °F 33.1 °F 37.4 °F 87% 29.62 in 6.2 mi East 15.0 mph 27.6 mph N/A Rain Light Rain
11:20 PM 41.0 °F 33.5 °F 37.4 °F 87% 29.62 in 6.2 mi East 13.8 mph - N/A Rain Light Rain
11:50 PM 41.0 °F 33.9 °F 37.4 °F 87% 29.62 in 6.2 mi ENE 12.7 mph - N/A Rain Light Rain